Location: Silverdale
(47.6506°N, 122.6941°W)
Time: 01:08:43
(UTC+00:00)

A-11 Canister half - Pass Details

Date: 08 October 2022
Orbit: 1524 x 1685 km, 47.3° (Epoch: 05 December)

Event Time Altitude Azimuth Distance (km) Brightness Sun altitude
Rises 01:49:02 0° 277° (W) 4,676 13.7 -2.7°
Reaches altitude 10° 01:52:03 10° 277° (W) 3,698 12.8 -3.2°
Maximum altitude 02:01:24 85° 191° (S) 1,560 9.1 -4.8°
Drops below altitude 10° 02:11:00 10° 105° (ESE) 3,788 10.4 -6.4°
Enters shadow 02:12:16 - 104° (ESE) 4,193 10.7 -6.6°
